User: anonymous   Login
Location: Unspecified
(0.0000°N, 0.0000°E)
Time: 22:53:26
(UTC+00:00)
Language:

LEMUR-2 BRIDGEMAN - Orbit

View from above orbital plane
View from above orbital plane
View from above satellite
View from above satellite

Ground track
Ground track

The orbit data is extracted from the following two-line orbital elements,

1 41595U 16019B   17113.87776604 +.00203861 +00000-0 +75476-3 0  9991
2 41595 051.6306 274.9025 0002668 261.8137 098.2565 15.87013809048106
Epoch (UTC): 23 April 2017 21:03:58
Eccentricity: 0.0002668
inclination: 51.6306°
perigee height: 309 km
apogee height: 312 km
right ascension of ascending node: 274.9025°
argument of perigee: 261.8137°
revolutions per day: 15.87013809
mean anomaly at epoch: 98.2565°
orbit number at epoch: 4810

The dashed part of the orbit path shows where the satellite is in the earth's shadow,  

DLR